{"data":{"norad_id":61927,"epoch":"2026-09-21T16:46:46.332768Z","epoch_age_seconds":82054,"freshness":"FRESH","line1":"1 61927U 24207R   26264.69914737  .00017097  00000+0  62907-3 0  9996","line2":"2 61927  43.0035 254.4040 0001656 280.9229  79.1436 15.27595603104706","mean_motion":15.27595603,"eccentricity":0.0001656,"inclination_deg":43.0035,"raan_deg":254.404,"arg_perigee_deg":280.9229,"mean_anomaly_deg":79.1436,"bstar":0.00062907,"rev_number":10470,"period_min":94.265785864533,"perigee_km":481.86617076161,"apogee_km":484.13858012276,"semimajor_km":6861.1393754422,"source":"CELESTRAK","updated_at":"2026-09-22T09:00:49.451700Z"}}